ASTRA 5B

Last updated on Tue Sep 22 2026 00:03:13 GMT+0000 (Coordinated Universal Time)

1 39617U 14011B 26264.27994308 .00000133 00000+0 00000+0 0 9990 2 39617 0.0857 300.8164 0003056 257.9068 285.7270 1.00273966 45634
UTC large
Height (km)
Speed (km/s)
/
Latitude / Longitude
Inclination (degrees)
Orbital Period (minutes)
Azimuth
Elevation
Range (km)
Doppler Factor

Next 0 passes for location: London (51.5072 / 0.1276)

No passes found over London.
ASTRA 5B